Retour au catalogue

SNIPE C

ActifSciencePO
NORAD 56746·PAYLOAD·🇰🇷 South Korea

Lancé May 25, 2023 depuis Naro Space Center

Loading…

Prochains Passages (prochaines 24 heures)

TLE

FraisSource: Space-Track

Époque: Sep 14, 2026, 13:35 UTC

1 56746U 23072D   26257.56620330  .00607163  17584-3  97677-3 0  9999
2 56746  97.4597 121.7346 0002516 183.5900 176.5362 16.03578767184996

Suivez SNIPE C en temps réel avec AllMySat

Download on the App Store